Find Starlink 3839

NORAD ID: 52480 Int'l Des: 2022-049 Owner: SPXS Country: US Constellation: starlink operational
LEOCIRCULAR

实时位置

正在加载3D地球...

关于 Starlink 3839

正在加载描述...

即将过境

Passes for default location (London). Set your location on the main map for personalized predictions.

高度历史

Loading altitude history...

两行轨道根数

1 52480U 22049AF 26105.78889219 .00000358 00000-0 40610-4 0 9993
2 52480 53.2169 252.5732 0001288 85.5157 274.5982 15.08835479217853
Epoch: Apr 15, 2026 • Age: 22 hours

当前状态

高度 539.7 km
速度 7.60 km/s
星下点 18.28°N, 158.37°E
发射日期 May 6, 2022
运行时间 3.9 years
类型 internet

技术详情

分类 Payload
质量 297.00 kg
干质量 220.00 kg
总质量 297.00 kg
长度 0.20 m
直径 2.80 m
跨度 9.00 m
形状 Box + pan
制造商 SPXS
平台类型 Starlink
阶段状态 In Orbit
所有者/国家 SPXS/US

Most Searched